| time (UTC) | temp F | wind direction | speed MPH | gust MPH | rain 1hr in | rain 24hr in | rain mn in | humidity % | barometer mb |
| 20260508040139 | 51 | 205 | 0.0 | 0.0 | 0.00 | 0.49 | 0.00 | 95 | 1016.8 |
| 20260508034554 | 52 | 205 | 0.0 | 0.0 | 0.00 | 0.53 | 0.49 | 95 | 1016.6 |
| 20260508033057 | 52 | 205 | 0.0 | 0.0 | 0.00 | 0.53 | 0.49 | 95 | 1016.3 |
| 20260508031556 | 53 | 205 | 0.0 | 0.0 | 0.00 | 0.53 | 0.49 | 95 | 1016.2 |
| 20260508030149 | 54 | 205 | 0.0 | 0.0 | 0.00 | 0.53 | 0.49 | 95 | 1016.2 |
| 20260508024610 | 54 | 205 | 0.0 | 0.0 | 0.00 | 0.54 | 0.49 | 95 | 1016.2 |
| 20260508023041 | 54 | 205 | 0.0 | 0.0 | 0.00 | 0.54 | 0.49 | 95 | 1016.0 |
| 20260508021546 | 54 | 205 | 0.0 | 0.0 | 0.00 | 0.54 | 0.49 | 95 | 1015.8 |
| 20260508020139 | 54 | 205 | 0.0 | 0.0 | 0.00 | 0.54 | 0.49 | 95 | 1015.6 |
| 20260508014557 | 54 | 205 | 0.0 | 0.0 | 0.00 | 0.54 | 0.49 | 95 | 1015.4 |
| 20260508013055 | 54 | 205 | 0.0 | 0.0 | 0.00 | 0.54 | 0.49 | 95 | 1015.2 |
| 20260508011602 | 54 | 205 | 0.0 | 0.0 | 0.00 | 0.54 | 0.49 | 95 | 1014.6 |
| 20260508010151 | 55 | 68 | 0.0 | 0.0 | 0.00 | 0.54 | 0.49 | 95 | 1014.4 |
| 20260508004551 | 55 | 207 | 0.0 | 0.0 | 0.00 | 0.54 | 0.49 | 95 | 1014.6 |
| 20260508003042 | 55 | 208 | 0.0 | 0.0 | 0.00 | 0.54 | 0.49 | 95 | 1014.5 |
| 20260508001547 | 55 | 208 | 0.0 | 0.0 | 0.00 | 0.54 | 0.49 | 95 | 1014.3 |
| 20260508000141 | 55 | 213 | 0.0 | 1.0 | 0.00 | 0.54 | 0.49 | 95 | 1014.3 |
| 20260507234536 | 56 | 326 | 0.0 | 0.0 | 0.00 | 0.54 | 0.49 | 95 | 1013.9 |
| 20260507233034 | 56 | 79 | 0.0 | 1.0 | 0.00 | 0.54 | 0.49 | 95 | 1013.6 |
| 20260507231536 | 56 | 212 | 0.0 | 1.0 | 0.00 | 0.54 | 0.49 | 95 | 1013.2 |
| 20260507230133 | 56 | 124 | 0.0 | 2.0 | 0.00 | 0.54 | 0.49 | 95 | 1013.1 |
| 20260507224555 | 56 | 229 | 0.0 | 1.0 | 0.01 | 0.54 | 0.49 | 95 | 1013.4 |
| 20260507223051 | 56 | 81 | 0.0 | 2.0 | 0.02 | 0.54 | 0.49 | 95 | 1013.2 |
| 20260507221548 | 56 | 123 | 0.0 | 8.0 | 0.02 | 0.54 | 0.49 | 95 | 1012.8 |
| 20260507220146 | 57 | 169 | 0.0 | 3.0 | 0.02 | 0.54 | 0.49 | 94 | 1012.9 |
| 20260507214543 | 57 | 275 | 0.0 | 4.0 | 0.01 | 0.53 | 0.48 | 93 | 1013.1 |
| 20260507213042 | 58 | 134 | 0.0 | 3.0 | 0.00 | 0.52 | 0.47 | 92 | 1012.8 |
| 20260507211542 | 57 | 102 | 0.0 | 4.0 | 0.00 | 0.52 | 0.47 | 91 | 1012.7 |
| 20260507210139 | 58 | 285 | 0.0 | 3.0 | 0.00 | 0.52 | 0.47 | 92 | 1012.7 |
| 20260507204555 | 58 | 180 | 0.0 | 4.0 | 0.00 | 0.52 | 0.47 | 92 | 1012.5 |
| 20260507203114 | 58 | 108 | 1.0 | 5.0 | 0.00 | 0.52 | 0.47 | 93 | 1012.3 |
| 20260507201551 | 59 | 248 | 0.0 | 5.0 | 0.00 | 0.52 | 0.47 | 93 | 1012.2 |
| 20260507200150 | 60 | 164 | 0.0 | 3.0 | 0.00 | 0.52 | 0.47 | 93 | 1012.3 |
| 20260507194555 | 59 | 210 | 0.0 | 3.0 | 0.00 | 0.55 | 0.47 | 94 | 1012.2 |
| 20260507193042 | 60 | 280 | 0.0 | 4.0 | 0.00 | 0.55 | 0.47 | 94 | 1012.2 |
| 20260507191545 | 59 | 200 | 1.0 | 8.0 | 0.00 | 0.55 | 0.47 | 94 | 1012.3 |
| 20260507190143 | 59 | 295 | 0.0 | 6.0 | 0.00 | 0.55 | 0.47 | 94 | 1012.4 |
| 20260507184543 | 59 | 284 | 0.0 | 9.0 | 0.00 | 0.67 | 0.47 | 95 | 1012.2 |
| 20260507183040 | 58 | 56 | 0.0 | 11.0 | 0.01 | 0.67 | 0.47 | 95 | 1011.9 |
| 20260507181537 | 59 | 352 | 0.0 | 6.0 | 0.03 | 0.67 | 0.47 | 95 | 1012.4 |
| 20260507180133 | 60 | 155 | 1.0 | 3.0 | 0.03 | 0.67 | 0.47 | 94 | 1011.6 |
| 20260507174550 | 62 | 307 | 0.0 | 9.0 | 0.03 | 0.67 | 0.47 | 93 | 1012.1 |
| 20260507173115 | 68 | 229 | 0.0 | 0.0 | 0.03 | 0.66 | 0.46 | 95 | 1012.0 |
| 20260507171545 | 68 | 225 | 0.0 | 1.0 | 0.02 | 0.64 | 0.44 | 95 | 1011.4 |
| 20260507170146 | 68 | 218 | 0.0 | 1.0 | 0.03 | 0.64 | 0.44 | 95 | 1011.0 |
| 20260507164544 | 69 | 126 | 0.0 | 1.0 | 0.04 | 0.64 | 0.44 | 95 | 1010.9 |
| 20260507163043 | 68 | 165 | 0.0 | 0.0 | 0.04 | 0.63 | 0.43 | 95 | 1011.1 |
| 20260507161547 | 68 | 165 | 0.0 | 1.0 | 0.03 | 0.62 | 0.42 | 95 | 1011.6 |
| 20260507160138 | 69 | 348 | 0.0 | 2.0 | 0.02 | 0.61 | 0.41 | 95 | 1012.5 |
| 20260507154553 | 68 | 357 | 0.0 | 1.0 | 0.02 | 0.60 | 0.40 | 95 | 1012.6 |
| 20260507153057 | 68 | 93 | 0.0 | 4.0 | 0.02 | 0.59 | 0.39 | 95 | 1012.5 |
| 20260507151550 | 68 | 78 | 0.0 | 0.0 | 0.02 | 0.59 | 0.39 | 95 | 1011.8 |
| 20260507150151 | 68 | 78 | 0.0 | 0.0 | 0.05 | 0.59 | 0.39 | 95 | 1012.1 |
| 20260507144550 | 68 | 100 | 0.0 | 1.0 | 0.05 | 0.57 | 0.38 | 95 | 1012.3 |
| 20260507143056 | 68 | 338 | 0.0 | 1.0 | 0.05 | 0.56 | 0.37 | 95 | 1011.9 |
| 20260507141553 | 67 | 313 | 0.0 | 0.0 | 0.07 | 0.56 | 0.37 | 95 | 1012.4 |
| 20260507140142 | 67 | 300 | 0.0 | 0.0 | 0.05 | 0.54 | 0.34 | 95 | 1012.1 |
| 20260507134537 | 67 | 300 | 0.0 | 1.0 | 0.05 | 0.53 | 0.33 | 95 | 1012.3 |
| 20260507133102 | 67 | 222 | 0.0 | 1.0 | 0.03 | 0.51 | 0.31 | 95 | 1012.9 |
| 20260507131536 | 66 | 284 | 0.0 | 1.0 | 0.02 | 0.50 | 0.30 | 95 | 1013.0 |
| 20260507130132 | 66 | 284 | 0.0 | 1.0 | 0.01 | 0.49 | 0.28 | 95 | 1012.9 |
| 20260507124549 | 66 | 295 | 0.0 | 0.0 | 0.00 | 0.48 | 0.28 | 95 | 1012.9 |
| 20260507123049 | 66 | 292 | 0.0 | 0.0 | 0.00 | 0.48 | 0.28 | 95 | 1012.9 |
| 20260507121545 | 66 | 103 | 0.0 | 0.0 | 0.00 | 0.48 | 0.28 | 95 | 1012.8 |
| 20260507120144 | 66 | 103 | 0.0 | 0.0 | 0.00 | 0.48 | 0.28 | 95 | 1012.6 |
| 20260507114555 | 65 | 103 | 0.0 | 0.0 | 0.00 | 0.48 | 0.28 | 95 | 1012.9 |
| 20260507113039 | 65 | 103 | 0.0 | 0.0 | 0.00 | 0.48 | 0.28 | 95 | 1012.7 |
| 20260507111538 | 65 | 103 | 0.0 | 0.0 | 0.00 | 0.48 | 0.28 | 95 | 1013.2 |
| 20260507110137 | 65 | 101 | 0.0 | 1.0 | 0.01 | 0.48 | 0.28 | 95 | 1013.2 |
| 20260507104551 | 65 | 106 | 0.0 | 1.0 | 0.02 | 0.48 | 0.28 | 95 | 1013.1 |
| 20260507103055 | 65 | 19 | 0.0 | 1.0 | 0.02 | 0.48 | 0.28 | 95 | 1012.8 |
| 20260507101549 | 64 | 35 | 0.0 | 0.0 | 0.02 | 0.48 | 0.28 | 95 | 1012.9 |
| 20260507100150 | 64 | 35 | 0.0 | 1.0 | 0.01 | 0.47 | 0.27 | 95 | 1012.7 |
| 20260507094555 | 64 | 34 | 0.0 | 0.0 | 0.00 | 0.46 | 0.26 | 95 | 1012.7 |
| 20260507093041 | 64 | 35 | 0.0 | 0.0 | 0.01 | 0.46 | 0.26 | 95 | 1012.8 |
| 20260507091541 | 64 | 35 | 0.0 | 0.0 | 0.01 | 0.46 | 0.26 | 95 | 1013.0 |
| 20260507090141 | 64 | 35 | 0.0 | 0.0 | 0.01 | 0.46 | 0.26 | 95 | 1012.8 |
| 20260507084539 | 64 | 313 | 0.0 | 0.0 | 0.01 | 0.46 | 0.26 | 95 | 1013.3 |
| 20260507083034 | 64 | 205 | 0.0 | 0.0 | 0.01 | 0.45 | 0.25 | 95 | 1013.0 |
| 20260507081538 | 64 | 205 | 0.0 | 0.0 | 0.05 | 0.45 | 0.25 | 95 | 1013.5 |
| 20260507080132 | 64 | 205 | 0.0 | 0.0 | 0.05 | 0.45 | 0.25 | 95 | 1013.8 |
| 20260507074551 | 64 | 205 | 0.0 | 0.0 | 0.06 | 0.45 | 0.25 | 95 | 1013.4 |
| 20260507073048 | 64 | 205 | 0.0 | 1.0 | 0.05 | 0.44 | 0.24 | 95 | 1013.3 |
| 20260507071543 | 64 | 131 | 0.0 | 0.0 | 0.01 | 0.40 | 0.20 | 95 | 1014.2 |
| 20260507070146 | 64 | 131 | 0.0 | 0.0 | 0.01 | 0.40 | 0.20 | 95 | 1014.2 |
| 20260507064546 | 64 | 131 | 0.0 | 0.0 | 0.00 | 0.39 | 0.19 | 95 | 1013.6 |
| 20260507063039 | 64 | 131 | 0.0 | 0.0 | 0.00 | 0.39 | 0.19 | 95 | 1014.5 |
| 20260507061540 | 64 | 131 | 0.0 | 0.0 | 0.00 | 0.39 | 0.19 | 95 | 1014.9 |
| 20260507060137 | 64 | 131 | 0.0 | 0.0 | 0.00 | 0.39 | 0.19 | 95 | 1014.4 |
| 20260507054552 | 65 | 131 | 0.0 | 0.0 | 0.02 | 0.39 | 0.19 | 95 | 1014.7 |
| 20260507053102 | 65 | 131 | 0.0 | 0.0 | 0.10 | 0.39 | 0.19 | 95 | 1015.3 |
| 20260507051551 | 65 | 131 | 0.0 | 1.0 | 0.13 | 0.39 | 0.19 | 95 | 1014.6 |
| 20260507050149 | 65 | 141 | 0.0 | 1.0 | 0.18 | 0.39 | 0.19 | 95 | 1013.8 |
| 20260507044603 | 65 | 325 | 0.0 | 1.0 | 0.20 | 0.37 | 0.17 | 95 | 1014.9 |
| 20260507043050 | 66 | 30 | 0.0 | 1.0 | 0.12 | 0.28 | 0.09 | 94 | 1015.8 |
| 20260507041547 | 66 | 44 | 0.0 | 2.0 | 0.10 | 0.26 | 0.06 | 94 | 1016.3 |